USA 255

导读

USA 255是美国于2014年7月28日发射的军用保密卫星,隶属于美国国家侦察局(NRO),作为美军保密航天体系的重要发射任务,延续了美国军方绝密侦察卫星的部署节奏。这类USA系列编号卫星通常承担图像侦察、电子侦听或海洋监视等国家级情报搜集任务,为美国军方和情报部门提供全球范围的战略态势感知支持,其具体任务细节与技术参数并未公开,是美国天基侦察网络补网增强的关键节点,至今仍在预定轨道执行相关任务。

基本信息
目录编号:
40101
目录名称:
USA 255
国际标识:
2014-043C
轨道中心:
EARTH
卫星名称:
USA 255
卫星全名:
--
卫星状态:
在轨 (已飞行4369 天)
发射日期:
2014-07-28 UTC
国别 :
美国 (US)
星等 :
--
轨道信息
数据来源 国际轨道数据
星历时间: 2026-07-13T21:02:54+0800
17小时前
查看轨道信息
半长轴: 42602.94km
偏心率: 0.0013532
轨道倾角: 9.298°
近地点辐角 335.934°
升交点赤经 56.998°
平近点角 253.412°
近地点: 36167.152km
远地点: 36282.454km
周期: 1458.542分钟
每日圈数: 0.987287
详细信息
使用方式:
暂无
2D轨道图
3D轨道图
轨道高度分析图
轨道倾角分析图
轨道综合分析图
查看轨道综合分析图